Home   Weather   Leesburg   Past weeks
Flag for USA

Past Weather in Leesburg, Virginia, USA — Yesterday and Last 2 Weeks

Now
41 °F

Clear.


Feels Like: 32 °F
Forecast: 51 / 40 °F
Wind: 21 mph from Northwest

Location: Leesburg / Godfrey

Current Time: Apr 10, 2020 at 5:20:46 am

Latest Report: Apr 10, 2020 at 4:35 am


Visibility: 10 mi

Pressure: 29.59 "Hg

Humidity: 57%

Dew Point: 27 °F

Location of LeesburgLocation

Past Weather in Leesburg — Graph

°F

Leesburg Temperature Yesterday

Maximum temperature yesterday: 66 °F (at 11:15 am)
Minimum temperature yesterday: 45 °F (at 10:15 pm)
Average temperature yesterday: 53 °F

High & Low Weather Summary for the Past Weeks

 TemperatureHumidityPressure
High73 °F (Apr 8, 1:35 pm)100% (Mar 26, 4:15 am)30.12 "Hg (Mar 26, 4:15 am)
Low36 °F (Mar 26, 7:35 am)26% (Mar 30, 1:35 pm)29.34 "Hg (Apr 9, 11:15 am)
Average53 °F72%29.89 "Hg
* Reported Mar 26 4:15 am — Apr 10 4:15 am, Leesburg. Weather by CustomWeather, © 2020

Note: Actual official high and low records may vary slightly from our data, if they occured in-between our weather recording intervals... More about our weather records

Leesburg Weather History for the Previous 24 Hours

Scroll right to see more
 ConditionsComfort  
Time TempWeatherWind HumidityBarometerVisibility
4:15 am
Fri, Apr 10
41 °FClear.20 mph57%29.60 "Hg10 mi
3:35 am43 °FPassing clouds.20 mph49%29.59 "Hg10 mi
3:15 am43 °FPassing clouds.13 mph49%29.59 "Hg10 mi
2:55 am43 °FClear.13 mph49%29.60 "Hg10 mi
2:35 am43 °FClear.20 mph49%29.59 "Hg10 mi
2:15 am43 °FClear.14 mph49%29.60 "Hg10 mi
1:55 am45 °FClear.21 mph42%29.60 "Hg10 mi
1:35 am43 °FClear.15 mph49%29.61 "Hg10 mi
1:15 am45 °FClear.13 mph46%29.61 "Hg10 mi
12:55 am45 °FClear.15 mph49%29.61 "Hg10 mi
12:35 am45 °FClear.20 mph49%29.61 "Hg10 mi
12:15 am45 °FClear.20 mph53%29.60 "Hg10 mi
11:55 pm
Thu, Apr 9
45 °FClear.16 mph53%29.60 "Hg10 mi
11:35 pm45 °FClear.22 mph61%29.60 "Hg10 mi
11:15 pm45 °FPassing clouds.23 mph61%29.60 "Hg10 mi
10:55 pm45 °FPassing clouds.20 mph66%29.61 "Hg10 mi
10:35 pm45 °FClear.22 mph66%29.60 "Hg10 mi
10:15 pm45 °FClear.18 mph66%29.59 "Hg10 mi
9:35 pm46 °FClear.22 mph62%29.57 "Hg10 mi
9:15 pm46 °FPassing clouds.20 mph62%29.56 "Hg10 mi
8:55 pm48 °FPassing clouds.30 mph58%29.55 "Hg10 mi
8:35 pm48 °FClear.22 mph54%29.54 "Hg10 mi
7:55 pm50 °FClear.23 mph50%29.52 "Hg10 mi
7:35 pm50 °FSunny.23 mph50%29.51 "Hg10 mi
7:15 pm52 °FSunny.22 mph47%29.51 "Hg10 mi
6:55 pm52 °FSunny.24 mph47%29.50 "Hg10 mi
6:35 pm54 °FSunny.28 mph44%29.49 "Hg10 mi
6:15 pm54 °FSunny.31 mph44%29.48 "Hg10 mi
5:55 pm54 °FSunny.29 mph44%29.47 "Hg10 mi
5:35 pm55 °FSunny.30 mph41%29.46 "Hg10 mi
5:15 pm55 °FSunny.26 mph41%29.46 "Hg10 mi
4:55 pm55 °FSunny.40 mph41%29.44 "Hg10 mi
4:35 pm54 °FSunny.35 mph44%29.44 "Hg10 mi
3:35 pm59 °FSunny.38 mph48%29.44 "Hg10 mi
3:15 pm59 °FSunny.38 mph51%29.42 "Hg10 mi
2:55 pm63 °FSunny.40 mph39%29.40 "Hg10 mi
2:35 pm63 °FSunny.31 mph45%29.39 "Hg10 mi
2:15 pm63 °FScattered clouds.37 mph45%29.38 "Hg10 mi
1:55 pm63 °FScattered clouds.31 mph49%29.39 "Hg10 mi
1:35 pm63 °FScattered clouds.30 mph52%29.37 "Hg10 mi
1:15 pm64 °FSunny.25 mph49%29.36 "Hg10 mi
12:35 pm63 °FBroken clouds.23 mph59%29.37 "Hg10 mi
12:15 pm64 °FBroken clouds.31 mph52%29.35 "Hg10 mi
11:35 am63 °FCloudy.16 mph77%29.35 "Hg10 mi
11:15 am66 °FBroken clouds.14 mph64%29.34 "Hg10 mi
10:35 am63 °FScattered clouds.5 mph77%29.37 "Hg10 mi
10:15 am59 °FScattered clouds.No wind82%29.37 "Hg10 mi
9:35 am55 °FSunny.No wind94%29.38 "Hg10 mi
9:15 am54 °FSunny.3 mph94%29.40 "Hg10 mi
8:55 am52 °FSunny.No wind100%29.42 "Hg10 mi
8:35 am50 °FSunny.No wind100%29.42 "Hg10 mi
8:15 am48 °FSunny.No wind100%29.43 "Hg7 mi
7:55 am50 °FSunny.3 mph100%29.44 "Hg7 mi
7:35 am50 °FSunny.No wind100%29.45 "Hg10 mi
7:15 am50 °FSunny.No wind100%29.46 "Hg10 mi
6:55 am50 °FScattered clouds.5 mph100%29.46 "Hg10 mi
6:35 am50 °FMostly cloudy.5 mph100%29.48 "Hg10 mi
6:15 am50 °FMostly cloudy.5 mph100%29.51 "Hg10 mi
5:55 am52 °FMostly cloudy.No wind94%29.52 "Hg5 mi
5:35 am52 °FThundershowers. Mostly cloudy.3 mph94%29.52 "Hg10 mi
5:15 am52 °FPartly cloudy.6 mph88%29.50 "Hg10 mi
Weather by CustomWeather, © 2020

See weather overview

Advertising